Yao current weather conditions

sailwx.info

Wind from 320 at 8 knots

Air temperature 4.0° C
Visibility: greater than 5.4 NM
Dewpoint -4.0° C

Last reported at 2015-Feb-01 10:00 UTC.
Time now 2015-Feb-01 21:19 UTC

Location: N 34°36' E 135°36'.
View on Google Maps.

See reports from other nearby stations

  
Tides and Currents Weather Stations Pressure Air Temp Water Temp Dewpoint Dewpoint Depression Visibility Wind Speed Wind Dir Waves Ship Positions
date/time (UTC)wind fromknots sea level pressurealtimeterstation pressurevisibilityair tempwater tempwave heightnotes
2015-Feb-01 10:00 320 8 5.4 4.0
2015-Feb-01 09:00 310 8 5.4 4.0
2015-Feb-01 08:00 310 10 5.4 5.0
2015-Feb-01 07:00 300 11 5.4 6.0
2015-Feb-01 06:00 320 13 5.4 7.0
2015-Feb-01 05:00 310 13 5.4 7.0
2015-Feb-01 04:00 300 13 5.4 6.0
2015-Feb-01 03:00 310 13 5.4 6.0
2015-Feb-01 02:00 320 10 5.4 5.0
2015-Feb-01 01:00 290 9 5.4 4.0
2015-Feb-01 00:00 5.4 2.0
2015-Jan-31 23:00 270 4 5.4 1.0
2015-Jan-31 10:00 300 9 5.4 3.0
2015-Jan-31 09:00 300 4 5.4 3.0
2015-Jan-31 08:00 350 10 5.4 3.0
2015-Jan-31 07:00 340 10 5.4 5.0
2015-Jan-31 06:00 360 11 5.4 5.0
2015-Jan-31 05:00 330 15 5.4 6.0 Showers in the vicinity.
2015-Jan-31 04:00 340 14 5.4 5.0
2015-Jan-31 03:00 330 13 5.4 5.0
2015-Jan-31 02:00 300 11 5.4 4.0
2015-Jan-31 01:00 340 11 5.4 5.0
2015-Jan-31 00:00 330 12 5.4 4.0 Light rain showers.
2015-Jan-30 23:00 300 7 5.4 3.0